Location: Bennemühlen
(52.5740°N, 9.7135°E)
Time: 17:30:19
(UTC+00:00)

Tiros 1 despin weight - Pass Details

Date: 18 February 2026
Orbit: 556 x 593 km, 48.2° (Epoch: 11 March)

Event Time Altitude Azimuth Distance (km) Brightness Sun altitude
Rises 18:48:20 0° 273° (W) 2,735 ? -20.2°
Reaches altitude 10° 18:50:47 10° 262° (W) 1,839 ? -20.5°
Maximum altitude 18:54:25 29° 202° (SSW) 1,038 ? -21.1°
Enters shadow 18:55:29 26° 175° (S) 1,128 ? -21.2°
Drops below altitude 10° 18:58:04 10° 142° (SE) 1,841 - -21.6°
Sets 19:00:31 0° 131° (SE) 2,739 - -22.0°
